Weather History for KBKE - April, 2014

Change the Weather History Date:

Wednesday, April 23, 2014

  Actual Average Record
Temperature  
Mean Temperature 39 °F 45 °F  
Max Temperature 56 °F 60 °F 86 °F (1977)
Min Temperature 21 °F 30 °F 12 °F (2013)
Degree Days  
Heating Degree Days 26 20  
Month to date heating degree days 481 512  
Since 1 July heating degree days 6762 6880  
Cooling Degree Days 0 0  
Month to date cooling degree days 0 0  
Year to date cooling degree days 0 0  
Moisture  
Dew Point 27 °F    
Average Humidity 62    
Maximum Humidity 92    
Minimum Humidity 32    
Precipitation  
Precipitation T in 0.03 in 0.45 in (1998)
Month to date precipitation 0.15 0.61  
Year to date precipitation 2.88 2.81  
Sea Level Pressure  
Sea Level Pressure 29.96 in    
Wind  
Wind Speed 7 mph (South)    
Max Wind Speed 28 mph    
Max Gust Speed 33 mph    
Visibility 10 miles    
Events Rain    
T = Trace of Precipitation, MM = Missing Value Source: NWS Daily Summary

Daily Weather History Graph

Daily Weather History Graph

Search for Another Location

Airport or City:

Trip Planner

Search our weather history database for the weather conditions in past years. The results will help you decide how hot, cold, wet, or windy it might be!

Date:

Astronomy

Apr. 23, 2014 Rise Set
Actual Time 5:53 AM PDT 7:46 PM PDT
Civil Twilight 5:21 AM PDT 8:18 PM PDT
Nautical Twilight 4:43 AM PDT 8:56 PM PDT
Astronomical Twilight 4:01 AM PDT 9:38 PM PDT
Moon 2:43 AM PDT (4/23) 1:45 PM PDT (4/23)
Length of Visible Light 14h 56m
Length of Day
13h 53m
Waning Crescent, 34% of the Moon is Illuminated
Apr 23
Waning Crescent
Apr 28
New
May 6
First Quarter
May 14
Full
May 21
Last Quarter

Hourly Weather History & Observations

Time (PDT) Temp. Windchill Dew Point Humidity Pressure Visibility Wind Dir Wind Speed Gust Speed Precip Events Conditions
12:53 AM 30.2 °F 24.3 °F 23.0 °F 75% 29.93 in 10.0 mi SSW 5.8 mph - N/A   Clear
1:53 AM 23.0 °F - 19.9 °F 88% 29.98 in 10.0 mi Calm Calm - N/A   Clear
2:53 AM 21.9 °F - 19.9 °F 92% 29.99 in 10.0 mi Calm Calm - N/A   Clear
3:53 AM 24.1 °F 19.7 °F 21.0 °F 88% 29.98 in 10.0 mi WSW 3.5 mph - N/A   Clear
4:53 AM 24.1 °F 19.7 °F 21.0 °F 88% 29.98 in 10.0 mi North 3.5 mph - N/A   Scattered Clouds
5:53 AM 25.0 °F 18.1 °F 21.9 °F 88% 29.99 in 10.0 mi SW 5.8 mph - N/A   Clear
6:53 AM 27.0 °F - 24.1 °F 89% 29.99 in 10.0 mi Calm Calm - N/A   Scattered Clouds
7:53 AM 34.0 °F - 28.0 °F 79% 29.99 in 10.0 mi Calm Calm - N/A   Mostly Cloudy
8:53 AM 39.0 °F 36.8 °F 28.0 °F 65% 29.99 in 10.0 mi SSW 3.5 mph - N/A   Mostly Cloudy
9:53 AM 46.0 °F 40.2 °F 30.0 °F 54% 29.98 in 10.0 mi South 12.7 mph - N/A   Clear
10:53 AM 48.9 °F - 28.9 °F 46% 29.99 in 10.0 mi SSW 8.1 mph - N/A   Partly Cloudy
11:53 AM 51.1 °F - 27.0 °F 39% 29.98 in 10.0 mi South 4.6 mph - N/A   Overcast
12:53 PM 48.9 °F - 28.9 °F 46% 29.97 in 10.0 mi South 10.4 mph - 0.00 in Rain Light Rain
1:53 PM 54.0 °F - 28.0 °F 37% 29.96 in 10.0 mi SSW 19.6 mph 25.3 mph 0.00 in   Overcast
2:53 PM 55.9 °F - 27.0 °F 33% 29.95 in 10.0 mi South 11.5 mph - N/A   Scattered Clouds
3:53 PM 54.0 °F - 26.1 °F 34% 29.93 in 10.0 mi SW 13.8 mph - N/A   Scattered Clouds
4:53 PM 51.1 °F - 30.9 °F 46% 29.96 in 10.0 mi SW 12.7 mph - N/A   Overcast
5:53 PM 48.9 °F - 30.9 °F 50% 29.97 in 10.0 mi WSW 4.6 mph - N/A   Overcast
6:53 PM 48.0 °F - 32.0 °F 54% 29.96 in 10.0 mi SSE 6.9 mph - N/A   Overcast
7:53 PM 46.9 °F - 32.0 °F 56% 29.93 in 10.0 mi SE 10.4 mph - N/A   Overcast
8:53 PM 46.9 °F - 30.9 °F 54% 29.93 in 10.0 mi SSE 9.2 mph - N/A   Overcast
9:53 PM 46.0 °F 41.9 °F 32.0 °F 58% 29.92 in 10.0 mi ESE 8.1 mph - N/A   Overcast
10:53 PM 44.1 °F 39.0 °F 33.1 °F 65% 29.90 in 10.0 mi East 9.2 mph - N/A   Overcast
11:53 PM 45.0 °F 41.8 °F 33.1 °F 63% 29.89 in 10.0 mi ESE 5.8 mph - N/A   Overcast